Regional Weather Roundup
Issued by NWS Little Rock, AR

Home | Current Version | Previous Version | Text Only | Print | Product List | Glossary On
Versions: 1 2 3 4 5 6 7 8 9 10 11 12 13 14 15 16 17 18 19 20 21 22 23 24 25 26 27
000
ASUS44 KLZK 172110
RWRLZK

WEATHER ROUNDUP FOR ARKANSAS
NATIONAL WEATHER SERVICE LITTLE ROCK AR
400 PM CDT WED APR 17 2024

NOTE: "FAIR" INDICATES FEW OR NO CLOUDS BELOW 12,000 FEET WITH NO
SIGNIFICANT WEATHER AND/OR OBSTRUCTIONS TO VISIBILITY.

ARZ001-010-029-103-172200-
NORTHWEST ARKANSAS

CITY           SKY/WX    TMP DP  RH WIND       PRES   REMARKS
FAYETTEVILLE   SUNNY     85  48  27 NW3       29.94F
FORT SMITH     MOSUNNY   86  65  49 VRB3      29.91F HX  88
HARRISON       SUNNY     84  45  25 VRB5      29.95F
BENTONVILLE    SUNNY     82  49  31 S6        29.96F
ROGERS         SUNNY     83  49  30 VRB5      29.96F
SILOAM SPGS    SUNNY     83  52  34 SW10G16   29.95F
HIGHFILL       SUNNY     83  47  28 SW6       29.94F
$$

ARZ004-005-016-172200-
NORTH CENTRAL ARKANSAS

CITY           SKY/WX    TMP DP  RH WIND       PRES   REMARKS
BATESVILLE     MOSUNNY   83  58  42 SW8       29.95F
FLIPPIN        SUNNY     85  49  28 CALM      29.93F
MTN HOME       SUNNY     84  44  24 VRB3      29.93F
$$

ARZ140-141-172200-
WEST CENTRAL ARKANSAS

CITY           SKY/WX    TMP DP  RH WIND       PRES   REMARKS
MENA           PTSUNNY   80  67  65 VRB3      29.96F
MOUNT IDA      PTSUNNY   83  63  50 VRB3      29.93F
$$

ARZ009-017-025-026-028-172200-
NORTHEAST ARKANSAS

CITY           SKY/WX    TMP DP  RH WIND       PRES   REMARKS
JONESBORO      PTSUNNY   81  63  54 SW9G20    29.94F
NEWPORT        PTSUNNY   81  68  64 S13       29.94F
WALNUT RIDGE   MOSUNNY   83  56  39 SW12      29.93F
BLYTHEVILLE    PTSUNNY   85  59  41 SW9       29.93F
$$

ARZ032-043-044-172200-
LITTLE ROCK METRO AREA

CITY           SKY/WX    TMP DP  RH WIND       PRES   REMARKS
LITTLE ROCK    PTSUNNY   84  68  58 SW7       29.95F HX  87
N LTL ROCK NWS   N/A     81  67  62 S3        29.95F
NLR AIRPORT    FAIR      81  68  65 SW7       29.95S
BENTON         CLEAR     82  72  69 SW6       29.95F HX  87
CONWAY         SUNNY     82  72  69 S6        29.93S HX  87
$$

ARZ033-042-122-123-172200-
REMAINDER OF CENTRAL ARKANSAS

CITY           SKY/WX    TMP DP  RH WIND       PRES   REMARKS
SEARCY         CLOUDY    82  69  64 S7        29.96F HX  85
HOT SPRINGS    PTSUNNY   83  66  56 SW7       29.95F HX  85
RUSSELLVILLE   PTSUNNY   83  62  49 VRB5      29.93F
CLINTON        DRZL/FOG  84  63  48 VRB7      29.94F VSB 1/2 HX  85
$$

ARZ036-172200-
EAST ARKANSAS

CITY           SKY/WX    TMP DP  RH WIND       PRES   REMARKS
WEST MEMPHIS   PTSUNNY   82  64  54 VRB6G16   29.94F
$$

ARZ050-053-066-070-072-073-172200-
SOUTHWEST ARKANSAS

CITY           SKY/WX    TMP DP  RH WIND       PRES   REMARKS
ARKADELPHIA    PTSUNNY   84  69  60 VRB3      29.95F HX  88
CAMDEN         CLOUDY    84  68  58 CALM      29.94F HX  87
TEXARKANA      PTSUNNY   86  66  51 S8        29.94F HX  88
MAGNOLIA       MOSUNNY   86  66  51 S7        29.94F HX  88
EL DORADO      CLOUDY    83  67  58 SE5       29.96F HX  85
DE QUEEN       MOSUNNY   83  66  56 S8        29.91F HX  85
$$

ARZ056-057-069-172200-
SOUTHEAST ARKANSAS

CITY           SKY/WX    TMP DP  RH WIND       PRES   REMARKS
PINE BLUFF     PTSUNNY   85  66  53 SW8       29.95F HX  87
STUTTGART      PTSUNNY   82  68  62 W7        29.96F HX  85
MONTICELLO     PTSUNNY   84  67  56 SE5       29.96F HX  86

$$





USA.gov is the U.S. government's official web portal to all federal, state and local government web resources and services.